Create Custom Reports and Graphics: Custom Report

Siberia 8700'

OV

8/31/26 3:45 PM (-07:00)
Updated Every 15 Minutes
Temp 57.1 °F   3.8
RH 49 %   8
Wet Bulb 46.6 °F   1.0
Dew Pt 38.0 °F   1.3
Wind Dir N | 0 °
Wind Spd 0.2 mph   0.0
Wind Gust 1.4 mph   0.2
WindChill 57.9 °F   2.5
Daily Min Temp 49.5 °F   3.8
Daily Max Temp 60.4 °F   2.4

Last 24 Hours

OV-Siberia 8700'

Hourly Data | America/Los_Angeles
as of 8/31/26 3:53 PM PDT
Date & Time Temp (°F) RH (%) Dew Pt (°F) Wet Bulb (°F) Wind Dir (°) Wind Spd (mph) Wind Gust (mph) WindChill (°F) Daily Min Temp (°F) Daily Max Temp (°F)
8/31/26 - 1500 58.7 45 37.2 46.9 N | 0 0.2 1.4 58.7 49.5 60.4
8/31/26 - 1400 58.6 38 33.0 45.2 N | 0 0.2 1.3 58.7 49.5 60.4
8/31/26 - 1300 59.0 41 35.2 46.2 N | 0 0.1 1.3 57.8 49.5 59.5
8/31/26 - 1200 57.3 39 32.6 44.5 N | 0 0.2 1.4 56.0 49.5 57.8
8/31/26 - 1100 55.3 39 30.6 42.9 N | 0 0.1 1.3 54.7 49.5 56.5
8/31/26 - 1000 52.9 41 30.1 41.6 N | 0 0.2 1.4 52.2 49.5 54.8
8/31/26 - 0900 51.1 42 28.6 40.2 N | 0 0.2 1.4 50.5 49.5 54.8
8/31/26 - 0800 50.1 41 27.6 39.4 N | 0 0.2 1.3 50.1 49.5 54.8
8/31/26 - 0700 49.9 42 27.6 39.3 N | 0 0.2 1.3 50.2 49.7 54.8
8/31/26 - 0600 50.7 40 27.3 39.6 N | 0 0.2 1.4 51.0 50.4 54.8
8/31/26 - 0500 51.7 41 28.9 40.6 N | 0 0.2 1.4 52.2 51.7 54.8
8/31/26 - 0400 52.1 43 30.4 41.4 N | 0 0.2 1.4 52.8 51.9 54.8
8/31/26 - 0300 53.7 30 23.4 39.8 N | 0 0.1 1.3 53.7 53.2 54.8
8/31/26 - 0200 53.8 29 22.2 39.5 N | 0 0.2 1.4 54.0 53.2 54.8
8/31/26 - 0100 54.5 29 23.2 40.1 N | 0 0.2 1.2 53.7 53.2 54.8
8/31/26 - 0000 53.3 37 27.6 40.9 N | 0 0.2 1.3 53.4 45.7 62.8
8/30/26 - 2300 53.2 42 30.7 42.0 N | 0 0.2 1.3 53.5 45.7 62.8
8/30/26 - 2200 53.7 45 32.7 43.0 N | 0 0.2 1.3 53.5 45.7 62.8
8/30/26 - 2100 52.8 52 35.8 43.8 N | 0 0.1 1.3 52.3 45.7 62.8
8/30/26 - 2000 52.2 58 37.8 44.4 N | 0 0.2 1.3 54.2 45.7 62.8
8/30/26 - 1900 56.5 49 37.7 46.2 N | 0 0.2 1.2 57.9 45.7 62.8
8/30/26 - 1800 59.2 46 38.7 47.8 N | 0 0.2 1.3 59.4 45.7 62.8
8/30/26 - 1700 59.8 43 37.1 47.3 N | 0 0.2 1.3 59.9 45.7 62.8
8/30/26 - 1600 60.4 43 37.6 47.8 N | 0 0.2 1.3 60.7 45.7 62.8
8/30/26 - 1500 59.9 42 37.0 47.4 N | 0 0.2 1.3 60.0 45.7 61.9
Max 60.4 58 38.7 47.8 - 0.2 1.4 60.7 53.2 62.8
Avg 54.8 41 31.6 43.1 - 0.2 1.3 54.8 - -
Min 49.9 29 22.2 39.3 - 0.1 1.2 50.1 45.7 54.8

Last 30 Days

OV-Siberia 8700'

Daily Data | America/Los_Angeles
as of 8/31/26 3:53 PM PDT
Date Daily Max Temp (°F) Time of Max Temp Daily Min Temp (°F) Time of Min Temp Wind Spd (mph) Daily Max Wind (mph) Time of Max Wind Max Wind Dir (°) Wet Bulb (°F) WetB Hrs <28F (hrs)
8/30/26 62.8 1519 45.7 0327 0.2 1.4 1023 S | 180 41.5 0.0
8/29/26 57.6 1623 44.6 0631 0.2 1.6 0908 SSE | 161 44.0 0.0
8/28/26 52.7 0135 44.7 1040 0.2 2.6 1010 S | 187 45.7 0.0
8/27/26 65.1 1250 51.7 2355 0.2 1.4 1205 S | 179 44.4 0.0
8/26/26 67.1 1548 54.5 0320 0.2 1.5 0817 S | 179 48.5 0.0
8/25/26 66.3 1528 52.8 0454 0.2 1.4 1620 S | 180 47.2 0.0
8/24/26 67.1 1412 53.7 2246 0.2 1.4 0018 S | 178 48.0 0.0
8/23/26 67.7 1501 53.2 0327 0.1 1.5 0655 S | 179 47.7 0.0
8/22/26 65.6 1436 53.6 2345 0.1 1.4 1112 S | 179 46.7 0.0
8/21/26 68.3 1408 55.5 2316 0.2 1.4 1541 S | 179 47.4 0.0
8/20/26 70.1 1439 56.2 0539 0.2 1.4 0958 S | 179 46.1 0.0
8/19/26 71.3 1502 58.0 2051 0.2 1.5 1114 S | 178 48.1 0.0
8/18/26 69.4 1708 53.7 0101 0.2 1.4 1306 S | 179 46.7 0.0
8/17/26 64.7 1335 51.8 0552 0.2 1.5 1426 S | 180 46.2 0.0
8/16/26 65.4 1510 50.0 0122 0.2 1.4 0909 S | 179 44.1 0.0
8/15/26 61.4 1638 47.6 0832 0.2 1.4 1844 S | 178 45.3 0.0
8/14/26 59.0 1647 45.2 0334 0.2 1.4 0728 S | 177 45.5 0.0
8/13/26 57.5 1303 48.2 2354 0.2 1.4 1139 S | 178 47.8 0.0
8/12/26 64.1 1527 53.6 2356 0.2 1.5 1505 S | 179 46.9 0.0
8/11/26 71.2 1530 57.4 2156 0.2 1.5 1319 S | 178 45.9 0.0
8/10/26 72.9 1422 60.4 2105 0.2 1.4 1711 S | 176 48.2 0.0
8/9/26 76.6 1547 63.2 2347 0.2 1.4 0538 S | 175 49.2 0.0
8/8/26 78.9 1438 65.8 0802 0.2 1.4 0655 S | 176 52.0 0.0
8/7/26 80.3 1515 63.7 0125 0.2 1.4 0338 S | 177 50.9 0.0
8/6/26 75.3 1507 60.4 0354 0.2 1.4 1249 S | 178 48.6 0.0
8/5/26 75.2 1510 60.4 0543 0.2 1.5 0841 S | 177 46.8 0.0
8/4/26 75.0 1433 60.1 0610 0.2 1.4 1546 S | 177 47.1 0.0
8/3/26 75.5 1521 57.3 0610 0.2 1.4 1323 S | 178 46.4 0.0
8/2/26 72.0 1532 57.6 0533 0.2 1.4 0942 S | 177 45.5 0.0
8/1/26 74.6 1534 60.1 0316 0.2 1.4 1618 S | 177 45.5 0.0
Max 80.3 - 65.8 - 0.2 2.6 - - 52.0 0.0
Avg - - - - 0.2 - - - 46.8 -
Min 52.7 - 44.6 - 0.1 1.4 - - 41.5 0.0
Calm: 0.0%
Calm: 0.0%